Weather History for KAVC - December, 2011

Change the Weather History Date:

Thursday, December 1, 2011

  Actual Average (KEMV) Record (KEMV)
Temperature  
Mean Temperature 42 °F -  
Max Temperature 53 °F 58 °F 77 °F (2006)
Min Temperature 30 °F 35 °F 20 °F (1989)
Degree Days  
Heating Degree Days 24    
Moisture  
Dew Point 25 °F    
Average Humidity 62    
Maximum Humidity 87    
Minimum Humidity 26    
Precipitation  
Precipitation 0.00 in - - ()
Sea Level Pressure  
Sea Level Pressure 30.31 in    
Wind  
Wind Speed 2 mph (NNW)    
Max Wind Speed 8 mph    
Max Gust Speed -    
Visibility 10 miles    
Events      
Averages and records for this station are not official NWS values.
T = Trace of Precipitation, MM = Missing Value Source: NWS Daily Summary

Daily Weather History Graph

Daily Weather History Graph

Search for Another Location

Airport or City:

Trip Planner

Search our weather history database for the weather conditions in past years. The results will help you decide how hot, cold, wet, or windy it might be!

Date:

Astronomy

Dec. 01, 2011 Rise Set
Actual Time 7:05 AM EST 4:56 PM EST
Civil Twilight 6:37 AM EST 5:24 PM EST
Nautical Twilight 6:05 AM EST 5:56 PM EST
Astronomical Twilight 5:34 AM EST 6:28 PM EST
Moon 11:56 AM EST (12/1) 11:45 PM EST (12/1)
Length of Visible Light 10h 47m
Length of Day
9h 50m
Waxing Crescent, 43% of the Moon is Illuminated
Dec 1
Waxing Crescent
Dec 2
First Quarter
Dec 10
Full
Dec 17
Last Quarter
Dec 24
New

Hourly Weather History & Observations

Time (EST) Temp. Windchill Dew Point Humidity Pressure Visibility Wind Dir Wind Speed Gust Speed Precip Events Conditions
12:15 AM 37.4 °F 34.9 °F 26.6 °F 65% 30.16 in 10.0 mi NW 3.5 mph - N/A   Clear
12:35 AM 37.4 °F - 26.6 °F 65% 30.17 in 10.0 mi Calm Calm - N/A   Clear
12:55 AM 35.6 °F - 26.6 °F 70% 30.17 in 10.0 mi Calm Calm - N/A   Clear
1:15 AM 35.6 °F - 26.6 °F 70% 30.18 in 10.0 mi Calm Calm - N/A   Clear
1:35 AM 33.8 °F - 26.6 °F 75% 30.19 in 10.0 mi Calm Calm - N/A   Clear
1:55 AM 33.8 °F - 26.6 °F 75% 30.19 in 10.0 mi Calm Calm - N/A   Clear
2:15 AM 35.6 °F - 26.6 °F 70% 30.20 in 10.0 mi Calm Calm - N/A   Clear
2:35 AM 33.8 °F 30.8 °F 26.6 °F 75% 30.22 in 10.0 mi North 3.5 mph - N/A   Clear
2:55 AM 33.8 °F - 26.6 °F 75% 30.22 in 10.0 mi Calm Calm - N/A   Clear
3:15 AM 30.2 °F 26.7 °F 24.8 °F 80% 30.22 in 10.0 mi NNW 3.5 mph - N/A   Clear
3:35 AM 30.2 °F - 26.6 °F 86% 30.23 in 10.0 mi Calm Calm - N/A   Clear
3:55 AM 30.2 °F - 26.6 °F 86% 30.23 in 10.0 mi Calm Calm - N/A   Clear
4:15 AM 30.2 °F - 26.6 °F 86% 30.23 in 10.0 mi Calm Calm - N/A   Clear
4:35 AM 32.0 °F - 26.6 °F 80% 30.23 in 10.0 mi Calm Calm - N/A   Clear
4:55 AM 30.2 °F - 26.6 °F 86% 30.24 in 10.0 mi Calm Calm - N/A   Clear
5:15 AM 32.0 °F 28.7 °F 24.8 °F 75% 30.26 in 10.0 mi NNW 3.5 mph - N/A   Clear
5:35 AM 32.0 °F - 24.8 °F 75% 30.27 in 10.0 mi Calm Calm - N/A   Clear
5:55 AM 30.2 °F - 24.8 °F 80% 30.27 in 10.0 mi Calm Calm - N/A   Clear
6:15 AM 30.2 °F - 24.8 °F 80% 30.28 in 10.0 mi Calm Calm - N/A   Clear
6:35 AM 30.2 °F 26.7 °F 24.8 °F 80% 30.29 in 10.0 mi NNW 3.5 mph - N/A   Clear
6:55 AM 30.2 °F 26.7 °F 24.8 °F 80% 30.31 in 10.0 mi NNW 3.5 mph - N/A   Clear
7:15 AM 30.2 °F 26.7 °F 24.8 °F 80% 30.31 in 10.0 mi NNW 3.5 mph - N/A   Clear
7:35 AM 30.2 °F 26.7 °F 24.8 °F 80% 30.33 in 10.0 mi NNW 3.5 mph - N/A   Clear
7:55 AM 30.2 °F 25.4 °F 26.6 °F 86% 30.33 in 10.0 mi NNW 4.6 mph - N/A   Clear
8:15 AM 33.8 °F 28.6 °F 26.6 °F 75% 30.34 in 10.0 mi NNW 5.8 mph - N/A   Clear
8:55 AM 37.4 °F 31.4 °F 26.6 °F 65% 30.36 in 10.0 mi NNW 8.1 mph - N/A   Clear
9:15 AM 39.2 °F 33.6 °F 26.6 °F 61% 30.36 in 10.0 mi North 8.1 mph - N/A   Clear
9:35 AM 41.0 °F 35.8 °F 26.6 °F 57% 30.37 in 10.0 mi North 8.1 mph - N/A   Clear
9:55 AM 42.8 °F 38.6 °F 24.8 °F 49% 30.37 in 10.0 mi North 6.9 mph - N/A   Clear
10:15 AM 44.6 °F 40.7 °F 24.8 °F 46% 30.38 in 10.0 mi North 6.9 mph - N/A   Clear
10:35 AM 46.4 °F 42.4 °F 23.0 °F 40% 30.37 in 10.0 mi North 8.1 mph - N/A   Clear
10:55 AM 46.4 °F 42.4 °F 19.4 °F 34% 30.38 in 10.0 mi NNE 8.1 mph - N/A   Clear
11:15 AM 48.2 °F - 19.4 °F 32% 30.37 in 10.0 mi North 6.9 mph - N/A   Clear
11:35 AM 48.2 °F - 19.4 °F 32% 30.36 in 10.0 mi NNW 4.6 mph - N/A   Clear
11:55 AM 48.2 °F - 19.4 °F 32% 30.36 in 10.0 mi NNE 4.6 mph - N/A   Clear
12:15 PM 48.2 °F - 19.4 °F 32% 30.34 in 10.0 mi NNW 4.6 mph - N/A   Clear
12:35 PM 50.0 °F - 19.4 °F 30% 30.34 in 10.0 mi North 3.5 mph - N/A   Clear
12:55 PM 51.8 °F - 19.4 °F 28% 30.34 in 10.0 mi North 6.9 mph - N/A   Clear
1:15 PM 51.8 °F - 17.6 °F 26% 30.33 in 10.0 mi North 6.9 mph - N/A   Clear
1:35 PM 51.8 °F - 17.6 °F 26% 30.33 in 10.0 mi NNW 3.5 mph - N/A   Clear
1:55 PM 53.6 °F - 19.4 °F 26% 30.33 in 10.0 mi NNW 3.5 mph - N/A   Clear
2:15 PM 53.6 °F - 19.4 °F 26% 30.33 in 10.0 mi NNW 5.8 mph - N/A   Clear
2:35 PM 53.6 °F - 19.4 °F 26% 30.33 in 10.0 mi NNW 5.8 mph - N/A   Clear
2:55 PM 53.6 °F - 19.4 °F 26% 30.33 in 10.0 mi Calm Calm - N/A   Clear
3:15 PM 53.6 °F - 19.4 °F 26% 30.33 in 10.0 mi Calm Calm - N/A   Clear
3:35 PM 53.6 °F - 21.2 °F 28% 30.34 in 10.0 mi Calm Calm - N/A   Clear
4:15 PM 53.6 °F - 21.2 °F 28% 30.35 in 10.0 mi Calm Calm - N/A   Clear
4:35 PM 50.0 °F - 26.6 °F 40% 30.36 in 10.0 mi Calm Calm - N/A   Clear
4:55 PM 46.4 °F - 28.4 °F 50% 30.36 in 10.0 mi Calm Calm - N/A   Clear
5:15 PM 42.8 °F - 30.2 °F 61% 30.36 in 10.0 mi Calm Calm - N/A   Clear
5:35 PM 42.8 °F - 33.8 °F 70% 30.36 in 10.0 mi Calm Calm - N/A   Clear
5:55 PM 39.2 °F - 32.0 °F 75% 30.37 in 10.0 mi Calm Calm - N/A   Clear
6:15 PM 39.2 °F - 32.0 °F 75% 30.36 in 10.0 mi Calm Calm - N/A   Clear
6:35 PM 37.4 °F - 30.2 °F 75% 30.37 in 10.0 mi Calm Calm - N/A   Clear
6:55 PM 37.4 °F - 30.2 °F 75% 30.37 in 10.0 mi Calm Calm - N/A   Clear
7:15 PM 35.6 °F - 30.2 °F 81% 30.38 in 10.0 mi Calm Calm - N/A   Clear
7:35 PM 35.6 °F - 30.2 °F 81% 30.38 in 10.0 mi Calm Calm - N/A   Clear
7:55 PM 35.6 °F - 30.2 °F 81% 30.39 in 10.0 mi Calm Calm - N/A   Clear
8:15 PM 35.6 °F - 28.4 °F 75% 30.39 in 10.0 mi Calm Calm - N/A   Clear
8:35 PM 33.8 °F - 28.4 °F 81% 30.39 in 10.0 mi Calm Calm - N/A   Clear
8:55 PM 33.8 °F - 28.4 °F 81% 30.39 in 10.0 mi Calm Calm - N/A   Clear
9:15 PM 32.0 °F - 28.4 °F 87% 30.39 in 10.0 mi Calm Calm - N/A   Clear
9:35 PM 33.8 °F - 30.2 °F 87% 30.40 in 10.0 mi Calm Calm - N/A   Clear
9:55 PM 32.0 °F - 28.4 °F 87% 30.40 in 10.0 mi Calm Calm - N/A   Clear
10:15 PM 30.2 °F - 26.6 °F 86% 30.40 in 10.0 mi Calm Calm - N/A   Clear
10:35 PM 32.0 °F - 30.2 °F 93% 30.41 in 10.0 mi Calm Calm - N/A   Clear
10:55 PM 30.2 °F - 26.6 °F 86% 30.41 in 10.0 mi Calm Calm - N/A   Clear
11:15 PM 28.4 °F - 26.6 °F 93% 30.41 in 10.0 mi Calm Calm - N/A   Clear
11:35 PM 30.2 °F - 26.6 °F 86% 30.41 in 10.0 mi Calm Calm - N/A   Clear
11:55 PM 30.2 °F - 26.6 °F 86% 30.41 in 10.0 mi Calm Calm - N/A   Clear